[[{"header":{"parameterUnit":"m.s-1","parameterCategory":1,"la1":30.2991,"la2":30.254,"lo1":-89.0895,"lo2":-89.0444,"dy":0.0017,"dx":0.0017,"nx":28,"ny":28,"refTime":"2024-10-08T03:00:00:Z","depth":0,"parameterNumber":2,"parameterNumberName":"U-component_of_WINDS"},"data":[0,0,0,0,0,0,0,0,0,0,0,0,0,0,0,0,0,0,0,0,0,0,0,0,0,0,0,0,0,0,0,0,0,0,0,0,0,0,0,0,0,0,0,0,0,0,0,0,0,0,0,0,0,0,0,0,0,0,-1.1565,-1.1565,0,-1.161,-1.161,-1.1611,-1.1578,-1.1577,-1.1575,-1.1574,-1.1622,-1.1624,-1.1627,0,0,0,0,0,0,0,0,0,0,0,0,0,-1.1451,-1.1453,-1.1565,-1.1565,-1.1566,-1.161,-1.161,-1.1611,-1.1579,-1.1577,-1.1575,-1.1573,-1.1621,-1.1624,-1.1627,0,0,0,0,0,0,0,0,0,0,0,0,0,-1.1499,-1.1454,-1.1565,-1.1555,-1.1554,-1.161,-1.1611,-1.1611,-1.1579,-1.1577,-1.1575,-1.1573,-1.162,-1.1624,-1.1628,-1.1695,0,0,-1.164,-1.1641,0,0,0,0,0,0,0,0,-1.1496,-1.1503,-1.1556,-1.1556,-1.1555,-1.1586,-1.1588,-1.164,-1.1579,-1.157,-1.1574,-1.1571,-1.1612,-1.1616,-1.163,-1.1698,-1.17,-1.164,-1.1642,-1.1644,-1.1645,0,0,0,0,0,0,0,-1.1493,-1.1501,-1.1583,-1.1557,-1.1556,-1.1548,-1.1553,-1.1597,-1.1602,-1.157,-1.1568,-1.1574,-1.1611,-1.1626,-1.163,-1.17,-1.164,-1.1643,-1.1646,-1.1647,-1.1826,-1.1828,0,0,0,0,0,0,-1.149,-1.1498,-1.1581,-1.1584,-1.152,-1.1552,-1.1557,-1.1579,-1.1602,-1.1603,-1.1576,-1.1572,-1.162,-1.1626,-1.1632,-1.1713,-1.1644,-1.1648,-1.165,-1.1824,-1.1827,-1.1829,0,0,0,0,0,0,-1.1488,-1.1498,-1.1579,-1.154,-1.155,-1.1556,-1.1581,-1.1581,-1.1595,-1.1606,-1.1607,-1.159,-1.1619,-1.1626,-1.168,-1.1715,-1.1649,-1.1653,-1.1821,-1.1825,-1.1828,-1.1877,0,0,0,0,0,0,-1.1485,-1.1497,-1.1523,-1.1541,-1.1552,-1.1627,-1.1583,-1.1583,-1.1602,-1.1598,-1.1619,-1.1621,-1.1618,-1.1674,-1.1684,-1.1719,-1.1656,-1.1818,-1.1823,-1.1827,-1.1872,-1.1882,-1.189,0,0,0,0,0,-1.1481,-1.1535,-1.1525,-1.1535,-1.1585,-1.1629,-1.1635,-1.163,-1.1605,-1.1631,-1.1638,-1.162,-1.1709,-1.168,-1.169,-1.1727,-1.1816,-1.1821,-1.1826,-1.1868,-1.188,-1.1889,0,0,0,0,0,0,-1.1522,-1.1538,-1.1526,-1.1588,-1.1607,-1.1623,-1.1656,-1.1642,-1.167,-1.1665,-1.1657,-1.1663,-1.1719,-1.1728,-1.1695,-1.1794,-1.1758,-1.1766,-1.1786,-1.1797,-1.1806,-1.1804,-1.1659,0,0,0,0,0,-1.1538,-1.1572,-1.1584,-1.1637,-1.1647,-1.165,-1.1669,-1.1663,-1.1683,-1.1691,-1.1702,-1.1722,-1.1754,-1.1776,-1.1806,-1.1872,-1.1877,-1.1903,-1.1912,-1.1919,-1.1926,-1.1962,-1.1974,-1.1847,-1.1847,-1.1847,0,0,-1.1572,-1.1585,-1.1607,-1.1646,-1.166,-1.1696,-1.1657,-1.1697,-1.1723,-1.1697,-1.1749,-1.1757,-1.1779,-1.1839,-1.1866,-1.1848,-1.1962,-1.1926,-1.1931,-1.1935,-1.1969,-1.1981,-1.1992,-1.1851,-1.185,-1.1849,0,0,-1.1653,-1.1665,-1.1712,-1.1726,-1.1748,-1.1749,-1.176,-1.1778,-1.1782,-1.1833,-1.1814,-1.1845,-1.1901,-1.1918,-1.1934,-1.2019,-1.2004,-1.2029,-1.2076,-1.2111,-1.2121,-1.213,-1.2161,-1.2172,-1.2036,-1.2036,-1.2036,0,-1.1693,-1.1746,-1.1737,-1.1778,-1.1796,-1.1773,-1.182,-1.1835,-1.1865,-1.1878,-1.1858,-1.1927,-1.194,-1.2004,-1.2025,-1.2038,-1.2051,-1.2028,-1.212,-1.2129,-1.2137,-1.2167,-1.2179,-1.2039,-1.2038,-1.2038,-1.2038,0,-1.1794,-1.1831,-1.1866,-1.1896,-1.1917,-1.1961,-1.1959,-1.1982,-1.1973,-1.1977,-1.2029,-1.2043,-1.2076,-1.209,-1.2083,-1.2153,-1.2142,-1.2121,-1.2085,-1.2152,-1.218,-1.2192,-1.2043,-1.2042,-1.2041,-1.204,0,0,-1.1905,-1.1928,-1.1941,-1.1954,-1.1976,-1.2004,-1.2046,-1.2078,-1.2098,-1.2119,-1.2155,-1.2202,-1.2182,-1.22,-1.2194,-1.2224,-1.2292,-1.2199,-1.22,-1.2218,-1.2371,-1.2388,-1.2402,-1.2281,-1.2283,-1.2285,-1.237,0,-1.1988,-1.2062,-1.2055,-1.2125,-1.2159,-1.2136,-1.2173,-1.219,-1.2194,-1.2223,-1.2227,-1.2261,-1.2232,-1.2243,-1.2272,-1.2278,-1.2323,-1.2271,-1.2316,-1.2317,-1.2313,-1.2416,-1.2435,-1.2514,-1.2381,-1.2382,-1.2384,0,-1.2095,-1.212,-1.2193,-1.2209,-1.2223,-1.2256,-1.2285,-1.2313,-1.2331,-1.2332,-1.2351,-1.2339,-1.2382,-1.2343,-1.2402,-1.2367,-1.2384,-1.239,-1.2393,-1.2399,-1.2356,-1.2426,-1.2539,-1.2552,-1.2401,-1.2399,-1.2398,0,-1.217,-1.2221,-1.2272,-1.2284,-1.2303,-1.2327,-1.2336,-1.2353,-1.2372,-1.2396,-1.2409,-1.2438,-1.2454,-1.2477,-1.2473,-1.2445,-1.2534,-1.2495,-1.2536,-1.2536,-1.2558,-1.2557,-1.2677,-1.2566,-1.2565,-1.2565,-1.2565,0,-1.2265,-1.2311,-1.2306,-1.2338,-1.2389,-1.2379,-1.243,-1.2436,-1.2451,-1.2483,-1.2465,-1.2496,-1.2488,-1.2518,-1.2516,-1.2565,-1.2572,-1.2575,-1.2574,-1.2578,-1.2578,-1.259,-1.2586,-1.2568,-1.2568,-1.2567,-1.2566,0,-1.2359,-1.2357,-1.2411,-1.2424,-1.2428,-1.2465,-1.2477,-1.2506,-1.2507,-1.2549,-1.2558,-1.256,-1.2595,-1.2593,-1.2632,-1.263,-1.2692,-1.2684,-1.2686,-1.2685,-1.2727,-1.2724,-1.2861,-1.2879,-1.2754,-1.2756,-1.2757,0,-1.242,-1.2455,-1.2472,-1.2492,-1.2503,-1.2535,-1.2554,-1.2546,-1.2567,-1.259,-1.2617,-1.265,-1.2676,-1.2733,-1.2738,-1.2768,-1.2761,-1.2807,-1.2766,-1.2769,-1.2764,-1.2763,-1.2767,-1.2816,-1.2818,-1.2819,-1.282,0,-1.253,-1.2527,-1.2556,-1.2584,-1.2607,-1.2629,-1.2649,-1.2666,-1.266,-1.2684,-1.2719,-1.2739,-1.2779,-1.2812,-1.284,-1.285,-1.2835,-1.2832,-1.2844,-1.2849,-1.285,-1.2851,-1.271,-1.283,-1.2829,-1.2828,-1.2828,-1.2827,-1.2611,-1.2641,-1.2657,-1.269,-1.2703,-1.2722,-1.275,-1.2755,-1.2784,-1.2815,-1.2808,-1.2848,-1.2864,-1.2901,-1.2913,-1.2944,-1.2927,-1.2943,-1.2948,-1.2953,-1.2958,-1.2843,-1.2948,-1.2948,-1.2948,-1.2948,-1.2947,0,-1.2721,-1.273,-1.276,-1.2788,-1.2813,-1.2794,-1.2815,-1.2838,-1.2873,-1.2889,-1.2915,-1.2955,-1.2987,-1.2994,-1.3024,-1.3048,-1.3041,-1.3056,-1.3055,-1.3058,-1.297,-1.2958,-1.3061,-1.3061,-1.3061,-1.3061,-1.3061,-1.3061,-1.2782,-1.2832,-1.2831,-1.2888,-1.2896,-1.2935,-1.2948,-1.2965,-1.2978,-1.3024,-1.305,-1.3054,-1.3067,-1.3098,-1.3126,-1.3127,-1.314,-1.3158,-1.3156,-1.3075,-1.3064,-1.3053,-1.3042,-1.316,-1.316,-1.3242,-1.3242,-1.3243]},{"header":{"parameterUnit":"m.s-1","parameterCategory":1,"la1":30.2991,"la2":30.254,"lo1":-89.0895,"lo2":-89.0444,"dy":0.0017,"dx":0.0017,"nx":28,"ny":28,"refTime":"2024-10-08T03:00:00:Z","depth":0,"parameterNumber":3,"parameterNumberName":"V-component_of_WINDS"},"data":[0,0,0,0,0,0,0,0,0,0,0,0,0,0,0,0,0,0,0,0,0,0,0,0,0,0,0,0,0,0,0,0,0,0,0,0,0,0,0,0,0,0,0,0,0,0,0,0,0,0,0,0,0,0,0,0,0,0,-6.3482,-6.3482,0,-6.3555,-6.3555,-6.3556,-6.3455,-6.3452,-6.3448,-6.3445,-6.3514,-6.3519,-6.3524,0,0,0,0,0,0,0,0,0,0,0,0,0,-6.3249,-6.3254,-6.3482,-6.3482,-6.3483,-6.3554,-6.3555,-6.3556,-6.3456,-6.3452,-6.3447,-6.3443,-6.3513,-6.3519,-6.3525,0,0,0,0,0,0,0,0,0,0,0,0,0,-6.3339,-6.3256,-6.3481,-6.3442,-6.3439,-6.3554,-6.3555,-6.3557,-6.3457,-6.3452,-6.3446,-6.3441,-6.351,-6.3518,-6.3526,-6.3681,0,0,-6.3549,-6.3553,0,0,0,0,0,0,0,0,-6.3334,-6.3348,-6.3447,-6.3445,-6.3442,-6.3491,-6.3499,-6.3598,-6.3458,-6.345,-6.3445,-6.3439,-6.351,-6.3518,-6.3543,-6.3684,-6.3687,-6.355,-6.3555,-6.3558,-6.356,0,0,0,0,0,0,0,-6.3328,-6.3344,-6.351,-6.3448,-6.3446,-6.3419,-6.3426,-6.3517,-6.3509,-6.345,-6.3443,-6.3454,-6.3508,-6.3536,-6.3544,-6.3688,-6.355,-6.3557,-6.3562,-6.3565,-6.396,-6.3965,0,0,0,0,0,0,-6.3327,-6.3339,-6.3508,-6.3512,-6.3374,-6.3427,-6.3435,-6.348,-6.3508,-6.3507,-6.3458,-6.3449,-6.3525,-6.3535,-6.3546,-6.373,-6.3558,-6.3565,-6.357,-6.3954,-6.3961,-6.3967,0,0,0,0,0,0,-6.3323,-6.3343,-6.3505,-6.3424,-6.3443,-6.3437,-6.3489,-6.3485,-6.3512,-6.3514,-6.3511,-6.3489,-6.3521,-6.3535,-6.3648,-6.3731,-6.3569,-6.3576,-6.3947,-6.3956,-6.3964,-6.4099,0,0,0,0,0,0,-6.3316,-6.3342,-6.3403,-6.3426,-6.3447,-6.3609,-6.3494,-6.349,-6.3527,-6.3515,-6.3542,-6.3541,-6.3518,-6.3637,-6.3656,-6.3738,-6.3582,-6.394,-6.3951,-6.3962,-6.4087,-6.4111,-6.4132,0,0,0,0,0,-6.3308,-6.3436,-6.3406,-6.3427,-6.3523,-6.3613,-6.3625,-6.3598,-6.3534,-6.3594,-6.3594,-6.354,-6.3719,-6.365,-6.367,-6.3756,-6.3934,-6.3948,-6.3961,-6.4077,-6.4106,-6.4131,0,0,0,0,0,0,-6.342,-6.3439,-6.3406,-6.3545,-6.3579,-6.3596,-6.3671,-6.363,-6.3681,-6.3668,-6.363,-6.3637,-6.3758,-6.3768,-6.3691,-6.3907,-6.3816,-6.3833,-6.3897,-6.3925,-6.3947,-6.3942,-6.3588,0,0,0,0,0,-6.3462,-6.3536,-6.3547,-6.3669,-6.3688,-6.3677,-6.3715,-6.3691,-6.3724,-6.3737,-6.3746,-6.3778,-6.3841,-6.3883,-6.3941,-6.4087,-6.4091,-6.4156,-6.4179,-6.4197,-6.4213,-6.429,-6.4319,-6.4011,-6.401,-6.401,0,0,-6.3547,-6.3566,-6.3615,-6.3692,-6.3715,-6.3791,-6.3689,-6.3773,-6.3829,-6.3749,-6.3857,-6.3865,-6.3898,-6.4029,-6.4086,-6.404,-6.4299,-6.4214,-6.4228,-6.4234,-6.4307,-6.4336,-6.4362,-6.4019,-6.4018,-6.4016,0,0,-6.3742,-6.3764,-6.3869,-6.3894,-6.3931,-6.3923,-6.3949,-6.3973,-6.3975,-6.4084,-6.4025,-6.4089,-6.4199,-6.4225,-6.4253,-6.4457,-6.4409,-6.4477,-6.4594,-6.467,-6.4694,-6.4715,-6.4788,-6.4815,-6.4492,-6.4493,-6.4493,0,-6.3843,-6.3957,-6.3927,-6.4016,-6.4051,-6.3984,-6.4088,-6.4114,-6.4167,-6.4192,-6.414,-6.4277,-6.4294,-6.443,-6.448,-6.4505,-6.4531,-6.4474,-6.4693,-6.4714,-6.4734,-6.4803,-6.4831,-6.4501,-6.45,-6.4499,-6.4498,0,-6.4079,-6.4159,-6.4238,-6.4294,-6.4338,-6.4434,-6.4417,-6.4464,-6.4437,-6.4434,-6.4544,-6.4563,-6.4624,-6.4654,-6.4627,-6.4786,-6.4756,-6.47,-6.4607,-6.4772,-6.4836,-6.4862,-6.4512,-6.451,-6.4507,-6.4505,0,0,-6.4347,-6.4385,-6.4415,-6.4439,-6.4475,-6.4535,-6.4627,-6.4689,-6.473,-6.4769,-6.4845,-6.4939,-6.4887,-6.4919,-6.4894,-6.4961,-6.5121,-6.4895,-6.4895,-6.4937,-6.5297,-6.534,-6.5372,-6.5089,-6.5094,-6.5098,-6.5295,0,-6.4541,-6.4704,-6.468,-6.4835,-6.4908,-6.4845,-6.4925,-6.4955,-6.4955,-6.5014,-6.5012,-6.508,-6.5006,-6.5025,-6.5088,-6.5089,-6.5193,-6.5074,-6.5158,-6.5162,-6.5153,-6.5405,-6.5451,-6.5635,-6.532,-6.5324,-6.5327,0,-6.4791,-6.4841,-6.5005,-6.503,-6.5059,-6.5132,-6.5186,-6.5245,-6.5276,-6.5271,-6.5307,-6.527,-6.536,-6.5266,-6.5389,-6.5308,-6.5341,-6.5346,-6.5353,-6.536,-6.5255,-6.5419,-6.5693,-6.5722,-6.5366,-6.5363,-6.536,0,-6.497,-6.5078,-6.519,-6.5213,-6.5245,-6.5297,-6.5313,-6.5339,-6.5378,-6.5424,-6.5448,-6.5504,-6.5535,-6.5578,-6.5556,-6.5489,-6.5683,-6.5587,-6.5681,-6.5681,-6.5725,-6.5722,-6.6009,-6.5746,-6.5745,-6.5745,-6.5744,0,-6.519,-6.5293,-6.5271,-6.5341,-6.5453,-6.5423,-6.5535,-6.5542,-6.5566,-6.5634,-6.5582,-6.5646,-6.5614,-6.5675,-6.5658,-6.5763,-6.5777,-6.5774,-6.5768,-6.5779,-6.578,-6.58,-6.5787,-6.5752,-6.575,-6.5749,-6.5748,0,-6.541,-6.54,-6.5518,-6.5539,-6.5546,-6.5628,-6.5645,-6.5708,-6.5704,-6.579,-6.5809,-6.5801,-6.5871,-6.5853,-6.5928,-6.5917,-6.6049,-6.6027,-6.604,-6.6034,-6.6129,-6.6121,-6.6439,-6.6479,-6.619,-6.6193,-6.6195,0,-6.5551,-6.5629,-6.5659,-6.5702,-6.5722,-6.5791,-6.5831,-6.5803,-6.5846,-6.5888,-6.5947,-6.6012,-6.6063,-6.6177,-6.6177,-6.6234,-6.6213,-6.6321,-6.6221,-6.623,-6.6215,-6.6211,-6.6218,-6.634,-6.6344,-6.6346,-6.6349,0,-6.5804,-6.5795,-6.5855,-6.5914,-6.5963,-6.6008,-6.6046,-6.6084,-6.6059,-6.611,-6.6182,-6.6221,-6.6299,-6.6364,-6.6417,-6.643,-6.6386,-6.638,-6.6405,-6.6417,-6.6421,-6.642,-6.6094,-6.6373,-6.637,-6.6369,-6.6367,-6.6366,-6.5989,-6.6055,-6.6087,-6.6155,-6.6182,-6.622,-6.6281,-6.6285,-6.6345,-6.6408,-6.6387,-6.6469,-6.6497,-6.6564,-6.6584,-6.6646,-6.6605,-6.6641,-6.665,-6.6659,-6.6671,-6.6411,-6.6655,-6.6654,-6.6654,-6.6653,-6.6653,0,-6.6239,-6.6256,-6.632,-6.6377,-6.6431,-6.6386,-6.6427,-6.6474,-6.6548,-6.6579,-6.6631,-6.6713,-6.6776,-6.6781,-6.684,-6.6889,-6.687,-6.6905,-6.6901,-6.6905,-6.6704,-6.6678,-6.692,-6.692,-6.6919,-6.6919,-6.6919,-6.6919,-6.6375,-6.6486,-6.6481,-6.6603,-6.6619,-6.6701,-6.6728,-6.6762,-6.6787,-6.6882,-6.6935,-6.6938,-6.6959,-6.7018,-6.7074,-6.7073,-6.7097,-6.7141,-6.7133,-6.6946,-6.6919,-6.6894,-6.6868,-6.7146,-6.7147,-6.7328,-6.733,-6.7331]}]]